Wind_Speed
11 12 13 13 16 18 17 14 12 11 11 9 7 7 9 10 10 11 13 13 12 12 12 12 12 12 12 12 12 12 12 13 13 13 13 13 13 13 13 12 11 11 12 11 11 11 10 10 10 10 10 9 8 8 7 7 7 7 7 6 6 7 6 6 6 5 5 6 6 7 9 8 7 9 10 11 13 13 12 13 13 13 12 12 14
9 11 12 14 16 18 18 17 15 13 12 10 9 9 9 11 11 11 12 13 13 13 13 12 12 12 12 12 12 12 12 12 12 12 12 12 12 12 12 11 9 9 10 9 9 8 8 7 7 7 7 7 7 6 5 5 4 4 5 5 5 7 6 5 5 4 4 7 8 7 11 9 5 9 13 11 12 11 10 12 13 13 13 11 12
9 10 11 12 13 15 16 15 15 15 13 10 11 10 10 12 13 11 11 12 13 13 13 13 12 12 12 12 11 11 11 11 11 11 11 10 10 10 11 10 9 9 8 8 7 7 7 6 5 5 5 5 5 5 5 5 4 3 4 5 5 6 6 5 4 3 3 5 7 5 9 12 7 9 14 14 14 12 9 11 13 13 15 14 14
8 8 8 9 9 10 11 12 14 15 13 12 12 12 12 13 14 13 11 10 12 13 13 13 13 12 12 11 11 11 11 10 10 10 10 10 9 8 8 9 9 8 8 8 7 7 6 6 5 5 5 5 5 5 4 5 4 4 4 4 4 5 5 5 4 2 2 2 5 3 7 11 10 10 13 12 14 14 12 14 15 15 17 17 17
8 7 6 7 8 8 8 10 13 14 13 13 13 13 14 13 14 15 14 11 11 12 12 13 13 13 12 12 12 12 11 11 10 10 10 10 9 8 7 7 7 7 8 8 8 7 7 6 6 5 5 5 4 4 4 5 4 3 3 3 3 4 3 2 2 2 2 0 4 7 8 8 8 12 13 11 10 10 10 12 14 17 19 20 21
5 4 4 5 6 7 8 10 13 13 13 13 13 15 16 14 14 15 15 13 13 12 12 12 12 12 12 12 12 12 12 12 11 11 10 10 10 9 8 7 7 7 7 7 8 8 7 7 6 6 6 6 6 7 6 6 6 5 4 4 3 4 4 2 1 1 1 1 3 7 8 9 9 10 12 14 13 11 11 13 13 13 18 23 24
4 3 3 3 3 4 6 9 12 13 13 13 15 17 18 16 15 15 16 15 14 14 13 13 13 13 13 13 13 13 13 13 12 12 11 10 10 9 8 7 7 7 7 7 7 8 8 8 8 8 8 8 8 8 9 9 9 8 7 6 5 4 4 3 3 2 2 2 4 4 5 9 11 9 10 13 12 9 12 17 16 14 18 23 24
5 3 2 2 3 4 4 6 9 10 11 12 14 16 18 18 17 17 17 16 16 15 15 15 15 15 15 15 15 15 14 14 14 13 11 11 11 9 8 8 7 8 8 9 10 10 10 10 10 10 10 9 9 10 11 11 11 11 10 9 7 6 5 5 4 4 4 4 6 6 5 6 9 8 8 9 9 9 14 19 20 19 21 24 23
6 4 3 2 3 3 3 4 6 8 9 11 12 14 15 17 19 20 18 17 16 17 17 17 16 16 17 17 17 17 16 16 16 15 13 13 12 11 10 9 9 10 10 11 12 13 13 13 13 13 13 11 11 11 11 11 11 11 11 11 10 9 7 5 4 4 5 6 8 7 7 8 8 8 8 10 13 16 19 21 21 21 23 25 22
5 4 3 2 1 1 2 3 4 6 7 8 11 13 12 13 17 19 19 18 17 17 18 18 16 15 16 17 17 17 18 19 19 17 16 15 14 13 13 14 14 14 14 14 15 15 15 15 16 17 16 15 14 13 12 11 11 11 11 11 11 10 9 7 5 5 6 7 8 7 8 9 8 8 10 13 17 19 21 21 22 23 24 24 22
5 4 3 2 1 1 1 1 2 4 6 7 9 11 12 13 15 17 19 19 19 19 19 19 17 17 17 17 17 18 19 21 20 19 18 18 17 17 18 18 19 18 18 18 17 15 13 13 15 17 17 17 16 14 13 12 12 13 13 13 13 11 9 7 6 7 7 6 7 9 10 9 8 9 11 13 16 19 21 22 22 22 22 23 24
5 4 3 2 1 1 0 1 2 3 4 6 8 10 12 14 15 16 17 18 20 20 20 20 19 18 17 17 18 19 20 22 22 22 22 21 20 21 21 21 20 19 19 18 15 12 10 10 13 16 16 16 15 14 14 13 14 14 15 15 14 11 10 10 8 9 10 11 11 13 13 10 9 10 13 16 19 21 23 22 19 20 22 24 25
6 5 4 3 2 2 1 1 3 4 5 6 8 9 11 13 15 16 16 18 19 19 20 20 20 19 17 17 17 18 20 22 23 25 27 26 24 23 22 21 18 16 16 15 13 12 11 10 10 12 13 13 12 12 13 13 14 15 17 16 14 12 12 13 13 13 14 15 14 12 12 12 11 11 16 21 22 23 24 23 21 22 25 26 27
6 6 5 4 4 3 3 2 2 4 6 7 8 9 10 11 13 14 15 17 17 16 16 18 21 22 21 20 19 20 22 24 25 27 28 27 25 24 22 19 16 14 13 13 12 12 11 10 10 9 9 11 11 11 12 12 12 14 17 17 14 12 14 15 15 16 15 15 15 13 14 15 14 15 20 23 22 23 24 24 25 27 29 30 31
6 5 5 5 4 3 2 2 2 3 4 6 7 8 9 11 12 13 14 16 17 16 17 21 25 27 27 26 24 23 22 23 24 23 22 20 18 17 17 16 14 12 11 11 10 10 11 11 11 8 7 8 10 11 12 13 12 12 15 16 14 13 15 16 16 16 16 16 16 16 17 17 17 18 21 23 23 25 26 27 29 30 30 29 27
6 6 5 5 4 3 3 3 4 4 5 5 5 7 9 10 11 11 12 12 13 15 19 21 22 22 22 22 22 19 17 17 17 16 15 14 13 13 13 12 11 11 11 10 9 9 9 8 7 6 6 6 8 10 12 12 11 11 13 15 15 14 16 17 16 17 17 17 18 18 18 18 19 20 22 23 24 25 26 28 27 24 22 22 21
7 6 5 4 4 4 5 5 6 6 7 6 6 6 7 8 9 10 9 8 8 12 16 16 14 13 14 14 14 13 12 12 12 13 13 13 13 12 11 10 10 11 10 10 9 8 7 6 5 5 6 6 8 10 10 10 10 10 10 12 13 15 17 17 17 17 18 18 18 17 18 19 20 22 23 24 25 25 27 27 23 19 19 20 20
7 7 7 6 5 6 6 6 6 6 6 6 7 8 7 7 7 7 7 7 10 14 15 14 13 12 12 12 12 11 11 11 12 12 13 13 13 12 10 10 11 11 10 10 9 8 7 6 7 7 7 8 9 9 10 10 10 10 10 10 12 15 17 17 18 18 17 17 17 18 19 21 23 24 25 25 25 26 27 26 24 23 22 20 20
11 11 11 11 10 9 9 9 9 9 8 8 8 8 8 9 9 8 8 9 12 14 14 13 13 13 12 12 12 11 11 11 12 13 13 13 13 12 11 10 11 10 10 11 10 9 8 7 7 8 8 9 9 9 11 11 10 10 10 10 13 16 17 17 17 17 17 17 19 21 23 24 25 26 27 27 27 27 26 25 25 24 21 20 19
18 16 16 15 13 12 11 12 12 13 13 13 13 11 10 10 10 10 10 10 11 12 12 13 14 14 13 13 14 13 13 13 14 13 14 14 14 14 12 10 11 11 11 11 11 10 9 7 7 8 8 8 8 9 10 11 10 10 11 11 13 15 16 16 15 15 16 18 20 22 23 25 26 27 27 27 27 27 26 25 25 22 20 19 19
23 22 21 20 18 15 14 14 15 16 16 16 16 17 16 14 12 11 11 12 13 14 15 17 17 16 16 17 17 17 16 15 15 14 14 15 15 15 12 10 11 11 11 11 11 10 9 8 7 8 7 6 6 6 7 8 9 10 11 12 13 14 15 15 15 16 18 19 20 21 21 21 21 21 21 21 21 21 23 25 23 18 15 16 18
27 27 26 25 24 22 20 19 19 19 18 17 17 17 18 18 16 14 14 15 16 17 18 19 19 18 19 19 19 18 16 15 13 13 13 13 13 14 14 12 12 12 11 11 11 11 10 8 7 7 6 4 4 5 6 7 8 9 10 12 13 14 14 15 16 16 17 17 17 18 17 16 15 15 15 17 17 19 22 23 19 14 13 15 18
29 29 29 29 28 27 26 25 24 23 22 21 19 17 17 19 19 18 18 19 19 21 22 22 21 21 21 20 19 17 15 13 12 11 11 10 10 12 13 13 13 12 12 12 12 12 11 9 8 7 6 6 6 7 7 8 8 9 10 12 13 13 14 15 15 15 16 16 16 15 13 13 13 14 16 17 19 21 23 22 17 14 14 15 16
30 30 31 30 30 30 30 29 28 27 25 24 23 20 18 19 21 22 21 20 21 23 24 24 24 24 23 22 20 18 15 14 12 11 9 9 9 10 11 11 12 13 13 13 14 13 12 10 10 9 8 8 8 8 8 8 9 10 11 12 12 13 13 12 13 14 14 14 12 12 12 13 15 17 18 20 21 23 22 20 16 14 14 14 15
30 31 31 31 30 30 30 30 30 30 29 27 26 23 19 19 21 23 23 22 22 23 24 25 24 24 25 25 22 20 18 16 13 11 9 8 7 7 8 10 11 13 14 15 14 13 12 11 10 10 9 8 8 8 8 9 10 11 11 11 11 11 11 10 11 12 10 9 10 11 12 14 16 18 17 17 18 19 16 14 13 13 13 14 14
29 30 31 31 31 31 31 30 29 29 29 28 27 25 22 20 19 21 22 24 24 23 23 24 24 22 23 24 23 21 19 18 15 12 10 8 7 8 8 10 11 12 13 14 14 13 13 12 10 9 9 9 9 9 9 10 10 10 10 9 9 9 9 9 9 9 8 8 11 13 13 13 14 14 14 14 15 14 12 12 12 12 12 13 14
26 28 29 30 30 29 28 29 29 27 26 25 24 24 24 22 21 21 23 24 26 25 24 24 25 23 22 23 24 21 18 16 14 11 9 9 9 9 10 10 11 12 14 15 15 15 13 10 9 8 8 9 10 10 10 9 9 8 8 8 8 9 9 9 9 9 10 11 12 13 15 14 13 13 14 14 14 13 12 13 13 13 13 13 14
21 23 24 26 28 27 25 26 28 28 27 26 25 24 23 23 23 23 23 24 25 25 25 25 25 23 21 22 23 22 19 15 14 13 14 15 14 13 13 12 12 13 15 16 16 14 11 9 8 9 9 10 10 9 8 7 6 6 7 7 8 8 8 9 9 9 10 12 14 14 15 14 12 11 12 13 13 12 12 12 13 14 14 13 14
19 19 20 21 24 25 25 24 25 26 26 26 25 24 24 24 23 22 23 25 25 25 28 30 29 26 24 24 22 19 16 15 15 16 18 18 17 15 14 13 14 15 15 14 14 13 12 10 10 11 11 10 9 7 6 6 6 6 6 5 4 5 6 7 7 8 11 14 16 15 13 12 11 12 12 12 12 12 12 12 13 13 13 13 13
20 19 18 18 19 21 22 22 22 23 24 24 24 25 27 30 30 28 27 30 32 30 30 32 31 29 28 25 19 13 13 14 13 15 18 17 16 15 14 13 14 13 13 13 14 14 13 12 11 11 10 9 7 6 6 5 4 5 5 4 3 4 5 6 7 9 13 17 16 13 12 11 12 12 12 12 12 13 12 12 12 12 13 13 14
20 20 19 18 18 18 19 21 20 21 22 23 24 24 26 30 33 33 31 33 36 36 32 29 30 31 31 28 21 16 17 18 16 17 19 18 16 14 13 13 13 13 13 14 15 14 14 12 12 11 10 8 7 7 6 4 3 3 3 3 3 5 6 7 9 12 15 16 14 10 10 11 12 12 12 12 13 14 13 12 12 12 12 13 14
20 21 20 20 19 18 19 20 21 21 22 22 24 24 24 24 28 31 32 31 33 36 36 33 33 35 35 33 27 22 21 21 20 20 20 18 15 13 12 12 13 13 13 13 13 14 13 12 11 11 10 9 8 7 5 4 4 4 2 1 2 4 6 8 10 13 16 15 12 10 10 12 12 12 12 12 12 13 13 12 12 13 13 14 15
23 23 23 23 23 21 19 18 19 20 21 22 23 25 24 23 22 26 30 30 28 30 32 33 34 35 35 33 31 27 23 23 24 23 20 16 14 13 12 12 13 13 14 14 13 13 13 12 11 10 9 8 8 6 5 5 5 4 3 2 2 4 6 9 11 14 16 14 10 10 12 13 12 12 12 11 12 13 13 13 13 13 14 15 16
24 25 25 26 25 23 20 18 17 18 20 21 22 24 25 23 20 20 24 28 27 26 27 30 33 35 36 35 34 30 26 27 26 23 19 17 15 14 14 14 14 14 15 14 13 13 13 12 10 9 8 8 7 6 6 6 5 4 3 2 2 3 6 9 11 14 15 12 10 11 12 12 11 11 11 11 12 13 13 13 14 15 15 16 16
24 25 26 26 26 26 24 21 18 17 18 19 21 23 24 23 21 19 19 22 23 24 24 25 27 30 34 37 35 29 27 28 26 22 19 18 16 16 17 17 17 17 16 14 12 12 12 11 10 9 8 8 7 7 7 6 5 3 2 2 2 4 7 9 11 14 15 11 9 11 11 10 10 11 11 12 13 14 14 14 15 17 17 17 17
23 24 26 26 26 27 26 25 22 19 18 18 19 21 23 22 20 19 18 17 18 21 23 21 20 22 25 27 29 30 28 26 24 22 20 19 19 19 19 18 18 18 17 14 12 12 11 10 9 9 8 8 7 7 7 6 4 3 2 2 2 4 7 9 11 14 14 9 9 11 11 10 11 11 12 13 14 14 14 15 16 18 19 19 19
20 21 24 26 26 24 23 23 22 20 19 18 18 19 21 21 19 18 17 16 15 17 19 20 22 23 22 21 23 27 27 25 23 23 21 19 19 18 17 16 18 19 17 15 14 13 11 10 9 9 8 7 7 6 6 5 4 3 3 2 2 5 7 9 12 16 14 9 9 11 11 11 11 11 12 14 14 14 14 15 16 19 20 19 20
16 18 21 22 20 18 17 18 19 18 17 17 17 17 19 20 19 17 16 14 13 13 15 17 21 25 26 23 20 21 23 25 25 24 22 20 19 17 16 17 17 17 16 15 14 13 11 10 9 8 7 7 7 6 6 5 3 3 2 2 3 5 8 9 12 15 14 10 10 11 10 11 11 11 12 14 15 14 14 14 16 19 20 20 21
15 17 19 17 13 11 12 14 15 14 13 14 15 16 17 17 18 18 16 15 14 14 13 13 15 19 21 23 25 27 29 28 25 25 25 24 20 17 17 17 17 16 15 14 13 12 11 9 9 8 8 8 7 6 6 5 3 2 2 2 3 5 7 7 9 12 13 11 10 10 10 11 11 12 13 14 14 14 13 14 15 17 19 20 21
13 14 16 14 8 6 7 10 12 11 10 10 12 15 15 14 14 16 15 15 16 17 15 13 13 15 15 16 21 27 31 31 29 29 30 27 21 17 17 17 17 16 15 13 11 10 9 8 7 8 8 8 7 6 6 5 2 1 2 2 3 5 6 7 9 12 14 13 11 11 11 12 12 12 13 14 15 15 14 14 15 16 18 20 21
13 12 13 12 6 2 2 6 8 8 6 7 9 11 12 10 9 12 14 13 16 19 18 14 14 17 15 12 15 23 29 31 31 30 28 24 21 20 19 18 17 15 14 12 11 10 9 8 8 8 8 8 7 6 5 4 2 0 2 3 4 5 6 7 10 14 15 12 11 13 14 14 14 14 15 17 18 17 15 14 15 15 16 19 21
11 11 11 10 7 4 3 3 5 5 5 6 7 8 9 8 7 9 11 12 15 18 17 16 17 20 16 13 17 24 28 29 28 26 23 20 20 21 19 17 16 15 13 11 10 9 8 8 8 8 8 8 8 6 4 3 2 1 2 3 4 5 5 7 10 13 15 13 13 16 17 18 17 16 15 15 16 16 14 14 15 14 16 19 21
10 9 9 10 9 7 4 4 5 5 6 7 8 7 8 7 7 8 10 12 16 17 16 17 20 21 17 17 21 25 26 25 25 25 23 20 20 19 18 16 16 14 12 11 9 7 7 8 9 8 9 9 9 7 5 3 2 0 2 3 4 5 5 7 9 12 14 15 16 18 19 20 18 16 14 14 15 15 14 14 14 14 15 18 20
11 9 8 8 9 10 9 10 10 9 9 8 7 6 5 4 2 6 10 13 14 14 12 12 14 15 17 22 24 22 20 21 22 24 25 24 21 19 18 16 14 12 10 9 8 6 8 9 9 8 8 8 8 6 5 3 1 1 3 3 4 4 5 7 9 11 13 15 17 19 20 20 18 16 14 15 15 14 14 14 14 14 16 18 20
12 11 9 7 7 8 9 10 9 8 8 8 9 7 6 7 4 5 11 12 14 15 14 11 9 12 19 26 26 21 20 24 26 26 26 25 22 20 17 14 12 10 9 8 7 6 7 8 8 8 8 7 7 5 4 2 1 3 4 4 4 5 6 6 8 10 13 15 17 19 20 20 19 17 16 15 14 14 14 14 14 14 16 18 20
13 11 10 8 7 7 7 7 8 8 7 8 10 9 8 9 8 8 10 12 14 15 14 12 11 13 20 25 25 23 24 28 28 27 26 24 21 18 16 13 11 9 8 6 5 5 6 7 8 8 8 7 6 5 2 1 2 4 5 5 5 6 6 6 8 10 12 14 16 18 20 20 19 19 18 16 14 14 15 15 15 15 16 16 17
17 13 11 9 8 7 7 5 5 5 5 7 8 8 7 8 9 10 11 11 12 12 12 12 13 15 19 22 23 24 26 27 27 26 25 21 18 16 14 12 10 8 6 5 5 5 5 6 7 7 7 6 5 4 2 2 3 4 5 6 6 7 7 7 8 9 11 13 16 18 19 20 20 19 17 15 14 14 15 15 15 16 16 14 14
22 20 17 14 10 9 8 6 4 4 4 5 6 7 7 7 7 8 9 9 10 11 12 14 17 21 24 25 25 25 25 24 24 23 21 17 14 13 12 11 9 7 5 5 5 5 5 6 6 5 5 5 4 3 2 3 3 4 5 6 7 8 8 8 8 9 11 13 15 17 18 20 21 19 15 14 14 15 14 15 16 16 15 13 13
24 24 24 21 17 14 12 9 8 7 6 6 6 6 6 6 6 7 9 11 12 15 17 19 22 24 25 25 24 23 22 22 21 20 18 14 12 12 12 10 9 7 6 5 5 5 5 5 5 5 5 5 4 2 2 1 2 3 4 5 6 8 9 10 10 10 11 12 14 16 17 19 20 18 14 13 14 14 14 14 16 16 14 13 13
22 23 24 24 24 23 20 17 15 14 12 12 12 12 12 12 12 14 15 17 19 20 21 22 22 23 23 22 22 21 20 20 19 17 15 12 11 11 11 9 7 6 6 6 6 6 6 5 5 5 5 5 4 2 1 0 1 2 4 5 6 8 9 10 11 11 11 11 13 15 15 16 18 18 15 12 13 14 14 14 15 15 13 12 13
18 20 21 22 23 24 24 23 22 20 19 19 20 21 21 20 20 20 20 21 21 22 22 21 21 20 20 19 18 18 17 17 16 15 14 13 12 12 10 8 6 6 6 7 7 7 6 6 5 5 5 5 4 2 1 1 1 2 4 5 6 7 9 10 11 11 11 11 12 13 14 16 17 18 16 14 13 13 13 13 14 14 13 12 12
Wind_Direction
236 240 241 234 227 225 226 231 237 231 218 215 213 202 189 175 159 148 145 145 148 149 147 148 147 144 142 140 138 135 131 130 129 127 127 126 126 126 121 116 116 118 119 122 126 130 135 139 142 140 136 135 131 124 123 123 120 117 112 107 107 106 95 100 113 97 49 30 26 13 6 12 10 1 1 357 354 356 356 354 356 359 358 348 343
215 224 230 233 233 231 234 242 240 221 212 220 218 207 203 193 176 160 150 148 149 151 151 152 151 148 148 146 145 143 140 138 136 134 133 133 132 130 126 125 127 124 122 123 126 131 135 142 151 153 153 150 139 135 138 125 115 118 121 115 110 106 102 105 111 103 61 24 15 3 359 5 352 339 346 347 348 354 351 347 349 349 349 346 337
199 206 212 220 227 227 232 239 228 210 210 222 220 214 213 204 191 177 163 156 155 156 158 158 157 156 154 152 151 150 149 148 146 143 142 143 143 141 139 141 143 137 130 132 137 140 139 143 154 162 165 167 161 168 170 150 142 158 153 147 139 124 115 115 108 110 101 29 19 4 344 349 346 334 338 336 338 345 342 338 342 339 339 343 338
186 194 202 205 208 209 214 221 216 210 214 219 219 220 220 215 203 193 184 175 168 165 165 165 163 163 162 161 160 159 159 160 157 154 154 153 152 152 152 153 155 153 151 156 160 158 155 157 163 165 167 174 175 183 188 171 164 180 179 173 169 153 132 122 114 117 143 34 16 349 327 338 338 330 336 337 335 339 339 334 334 329 328 332 332
178 181 189 196 198 195 198 208 215 220 223 220 219 218 217 219 213 202 197 194 187 179 176 175 172 169 169 169 169 169 171 173 172 171 170 168 166 165 167 170 173 174 175 177 178 176 174 176 184 185 180 180 180 183 192 185 175 185 188 186 201 201 189 152 135 132 148 214 342 336 328 330 325 322 330 334 328 328 329 328 328 325 322 324 326
159 163 172 187 197 198 199 203 211 220 226 223 220 215 213 216 215 210 206 203 200 192 185 184 180 175 173 175 177 179 182 185 187 188 186 184 182 181 183 186 189 192 194 195 194 193 192 192 200 207 198 194 196 197 203 200 187 191 196 192 219 242 249 267 251 193 183 279 323 329 324 319 318 321 324 325 327 325 317 320 326 323 318 320 323
124 139 159 174 189 196 198 202 207 216 223 225 222 218 215 213 213 217 215 211 208 202 196 193 190 186 186 190 192 194 195 197 200 201 201 200 199 198 198 200 204 210 214 218 218 217 214 209 213 223 222 219 224 225 229 227 214 210 213 210 224 250 250 260 271 269 286 306 310 313 314 314 315 318 319 323 331 330 317 317 320 318 315 317 320
115 121 134 158 187 191 194 199 204 213 219 222 221 219 218 216 214 217 218 216 215 213 209 206 203 203 204 205 207 209 208 210 212 211 211 214 216 214 213 216 224 232 236 238 239 238 238 235 233 238 241 239 246 251 250 248 243 241 242 236 233 241 250 261 273 278 282 295 304 305 306 313 314 315 321 325 327 320 314 316 319 319 316 317 320
115 120 119 154 193 191 188 193 199 210 216 218 218 217 219 219 216 215 218 220 222 224 223 220 218 219 220 219 220 220 219 221 222 221 220 223 226 224 228 235 241 249 253 251 250 248 247 249 247 249 253 252 252 258 259 256 254 256 259 254 243 243 252 262 270 272 277 290 297 299 305 308 303 302 312 316 315 315 317 320 322 320 318 318 320
94 100 102 132 166 155 177 190 195 208 213 216 218 215 216 218 216 216 221 224 226 229 230 229 228 230 231 229 229 228 228 229 230 231 231 231 232 234 242 249 252 258 262 260 259 259 255 254 253 252 255 257 257 261 264 262 254 248 250 250 246 248 255 263 267 263 271 288 291 290 302 306 298 300 310 312 314 318 321 323 322 321 320 319 319
76 82 85 87 94 108 160 192 196 207 210 215 220 218 219 221 218 220 226 230 232 233 233 232 234 238 240 240 239 237 235 233 234 236 239 240 240 244 251 257 259 263 265 262 262 261 255 252 253 252 252 254 259 262 262 260 251 242 240 239 238 244 256 267 271 271 277 283 281 288 300 302 299 303 305 308 314 318 320 322 321 320 319 317 316
59 57 60 66 77 97 177 204 222 229 222 222 223 220 222 225 225 229 234 236 237 237 236 235 237 240 244 247 247 245 243 242 242 245 248 248 245 247 253 260 266 268 262 257 253 248 241 237 245 254 254 252 257 263 261 255 247 241 237 237 239 244 256 262 260 267 277 279 282 292 297 296 300 300 298 306 314 316 317 319 316 312 313 313 312
53 46 41 30 11 352 322 237 236 242 238 236 233 229 228 228 229 233 238 240 240 240 241 240 239 240 244 246 248 247 247 248 248 249 252 253 251 251 253 256 262 261 251 247 242 237 237 237 245 258 262 256 256 260 261 256 250 242 237 238 241 244 253 261 264 268 275 280 286 290 287 290 297 296 299 310 316 316 317 317 313 311 311 310 307
51 50 47 37 25 16 9 337 271 257 249 244 241 240 241 241 239 240 243 246 245 242 244 246 246 247 248 249 250 251 253 255 254 253 253 253 253 254 250 246 244 242 239 240 240 238 237 236 238 247 256 257 253 252 260 265 257 245 237 237 241 246 253 261 268 272 275 279 285 286 286 294 301 301 305 313 315 314 316 314 312 312 310 309 310
40 40 39 34 30 25 14 341 306 294 282 268 257 252 251 252 252 251 253 258 258 253 250 251 252 251 250 251 253 255 256 257 256 253 249 247 246 244 236 230 227 229 233 236 238 239 237 235 232 228 235 247 249 250 263 273 267 249 239 236 239 248 255 261 270 276 280 285 289 291 293 299 303 304 309 314 315 315 316 314 314 315 314 314 315
26 22 20 13 352 323 302 292 290 289 290 286 271 258 254 255 259 260 262 267 263 248 241 243 246 246 244 246 248 248 247 246 243 238 233 227 222 218 217 218 219 221 228 233 232 233 234 233 227 217 221 241 253 257 264 269 265 252 241 237 239 246 254 262 272 278 282 287 290 292 295 298 303 306 310 313 314 315 315 315 318 317 312 308 305
14 9 0 348 330 310 291 283 283 279 276 274 264 258 254 251 256 260 262 261 238 220 225 232 233 231 230 229 229 227 225 222 217 214 210 205 204 207 211 213 214 216 221 226 226 226 227 226 224 229 239 250 255 257 258 260 259 253 245 240 240 247 255 263 271 277 282 288 290 293 297 300 304 308 309 310 312 313 313 315 314 307 299 298 298
343 332 316 306 305 301 285 266 260 260 262 261 255 253 252 247 250 250 243 233 217 210 216 222 218 212 212 210 208 209 205 199 197 198 198 200 205 211 209 205 208 213 217 223 227 229 229 228 229 235 244 249 250 249 246 246 245 245 245 242 241 249 256 263 272 280 286 291 293 296 301 303 305 308 308 308 310 310 310 310 308 306 302 298 297
310 308 302 297 293 293 285 270 256 248 250 257 255 250 248 243 242 238 230 228 223 217 216 214 208 204 205 204 204 206 202 197 199 203 205 210 214 211 202 201 209 211 212 222 230 232 231 233 233 234 237 240 241 235 229 226 226 230 236 236 240 250 260 269 280 288 293 299 302 305 307 307 308 309 308 308 308 307 306 307 307 307 301 294 294
297 297 295 294 295 295 291 281 270 260 256 257 257 259 258 248 238 233 225 217 218 219 214 206 201 203 207 207 208 212 212 210 212 214 214 215 216 211 203 205 212 210 208 217 226 231 232 231 227 226 229 232 231 223 216 213 213 221 228 230 238 254 269 280 287 292 297 301 303 305 307 308 308 310 311 311 311 309 309 309 307 304 297 292 293
289 288 288 287 288 288 287 283 277 270 264 259 257 260 260 255 248 243 227 212 213 216 211 206 206 208 210 210 211 216 219 218 218 219 217 216 216 214 210 210 211 210 210 212 215 223 229 226 220 223 231 238 234 221 213 211 214 226 235 240 250 267 279 285 288 292 297 300 303 305 307 308 309 309 308 308 308 306 304 303 301 296 290 287 289
283 282 281 279 278 278 278 279 277 274 270 264 259 257 253 248 244 240 232 226 225 222 215 213 214 212 210 210 212 215 217 216 214 212 210 212 212 211 211 215 216 213 207 200 202 216 228 227 223 228 239 245 231 213 209 216 225 236 245 253 262 271 277 281 288 293 298 302 305 306 306 304 302 300 298 298 297 293 293 295 294 287 281 280 281
283 281 279 276 274 273 272 272 273 272 271 265 258 251 243 238 233 230 231 233 232 229 225 222 220 217 213 210 208 206 205 204 204 204 205 207 207 205 209 217 219 211 200 197 208 223 233 233 231 233 235 227 220 218 221 226 235 244 252 258 263 268 274 283 291 297 302 304 305 304 302 298 296 296 294 292 289 287 289 291 291 287 283 280 277
281 280 278 276 274 272 269 268 268 267 267 265 259 253 245 238 232 228 229 230 229 228 225 221 217 215 213 210 206 204 207 210 211 210 209 211 210 207 206 209 211 205 199 205 218 227 231 233 235 235 232 225 225 229 231 233 240 248 256 263 268 275 285 293 298 302 305 306 304 302 300 298 299 299 295 289 290 293 295 296 295 292 289 286 284
279 278 277 275 273 271 269 267 266 264 263 261 258 254 249 243 237 232 227 225 223 220 217 214 210 208 210 210 207 206 209 215 217 214 213 216 219 216 210 208 211 211 211 218 225 225 226 231 235 234 229 225 227 231 230 236 246 254 262 271 278 287 294 298 301 305 307 302 299 303 305 303 303 304 299 296 301 307 307 301 297 296 296 294 292
273 273 274 273 272 270 267 265 263 262 261 259 257 254 249 243 239 233 227 223 221 218 215 210 206 204 205 206 207 207 208 212 213 211 211 214 218 221 219 215 216 219 221 223 222 218 221 228 232 229 224 222 228 234 239 247 257 263 272 281 289 296 299 298 301 305 306 303 305 310 312 308 305 305 305 304 306 308 305 300 299 300 300 300 297
275 272 270 269 268 268 266 263 261 258 256 254 253 250 247 243 239 233 228 224 221 220 218 213 212 211 206 202 204 203 200 200 201 203 209 217 220 222 224 221 218 217 219 218 216 216 221 227 226 223 226 232 239 246 251 257 264 272 282 290 294 297 296 295 299 305 310 316 318 316 315 313 309 307 306 303 301 301 301 300 300 300 301 300 297
284 280 275 269 266 263 262 260 258 256 253 250 248 246 244 241 237 233 229 224 220 218 216 213 215 215 207 201 201 200 198 207 222 235 243 245 241 235 229 222 216 215 217 218 215 214 217 221 223 225 230 239 246 251 254 258 265 276 286 292 297 301 303 307 313 318 321 325 325 319 316 316 312 307 305 303 301 302 303 300 298 298 300 299 295
285 284 282 277 272 268 263 259 257 255 253 251 248 243 238 234 232 231 227 221 218 218 217 215 215 212 205 199 198 203 218 235 248 253 251 245 240 235 227 219 218 218 219 217 212 208 210 216 224 228 231 236 239 237 242 255 269 277 282 287 295 305 315 323 325 324 324 328 330 325 319 316 311 308 309 307 305 306 305 302 300 299 298 295 292
284 282 281 278 276 274 269 265 260 255 252 250 246 243 241 239 237 235 231 226 222 220 220 220 218 213 211 209 206 216 240 250 253 251 243 231 224 222 218 217 220 218 212 205 201 204 212 219 222 223 224 223 215 208 225 249 264 275 284 290 288 294 311 324 327 326 330 335 336 329 319 313 311 311 310 306 306 309 307 303 301 299 297 295 293
280 279 278 275 273 271 269 267 264 257 252 248 243 242 245 247 244 239 235 233 229 224 225 227 221 216 223 232 237 242 246 246 246 242 232 221 216 214 211 211 212 208 202 200 199 204 211 214 214 212 204 194 192 202 219 229 215 220 264 295 303 308 320 329 330 334 338 339 334 324 316 313 312 312 309 306 307 310 308 305 303 300 297 294 293
278 276 275 274 273 271 269 266 263 258 253 248 242 239 239 244 246 241 236 234 233 231 234 235 230 227 232 237 241 245 243 237 231 227 220 212 209 207 205 205 205 201 196 196 199 202 201 196 195 196 191 189 201 214 218 208 200 199 204 235 289 307 321 329 334 341 345 341 330 320 318 317 314 311 309 306 306 308 308 307 305 302 299 296 294
283 278 274 272 271 270 269 267 263 258 254 249 243 239 236 235 239 240 237 235 235 235 236 235 233 233 231 229 236 245 239 223 215 212 208 204 201 200 200 198 197 195 190 186 188 191 187 181 184 189 189 193 207 214 203 193 198 203 203 222 277 307 325 336 342 346 346 340 328 320 318 316 314 313 310 308 307 307 307 307 306 303 301 300 298
296 289 283 277 272 266 263 264 262 260 257 250 242 238 235 232 231 233 235 236 235 235 236 234 232 232 230 231 239 242 228 212 208 204 200 199 199 199 198 193 187 187 184 179 178 180 179 178 181 183 187 194 201 199 191 189 194 200 214 257 299 312 329 342 347 347 345 340 327 320 320 319 318 317 314 311 308 307 307 307 307 307 305 304 303
305 300 294 287 278 269 263 260 258 257 257 254 246 238 232 231 228 224 226 232 234 234 233 230 229 233 235 237 238 230 212 206 206 202 197 200 200 198 197 192 184 181 178 175 174 176 177 179 180 181 187 194 193 186 186 190 192 194 217 281 307 319 338 350 350 344 342 338 327 323 324 323 322 319 316 314 311 310 309 308 309 312 312 311 311
311 309 304 296 285 275 267 261 258 256 254 252 249 240 231 227 226 222 219 221 226 232 233 231 231 235 235 230 222 211 203 203 205 201 198 201 200 197 195 190 183 179 175 171 173 175 175 176 176 175 180 186 184 182 185 187 186 197 226 273 314 338 349 351 345 341 341 337 330 330 329 326 325 323 320 318 314 310 308 308 312 318 321 321 320
309 309 304 297 288 280 271 260 256 257 255 250 247 241 232 224 222 221 217 209 208 219 227 227 225 225 226 218 203 193 192 197 200 198 197 195 191 189 188 186 182 177 172 170 174 175 173 172 171 170 173 175 172 173 179 179 184 213 248 286 329 344 348 347 348 352 356 349 334 333 332 329 329 327 323 321 318 313 308 307 314 324 329 329 328
303 305 307 299 285 275 267 255 251 257 260 250 240 234 227 221 218 215 208 198 193 199 205 208 210 215 221 223 213 199 195 195 190 186 185 183 176 173 176 178 176 170 167 172 176 172 165 166 168 166 167 169 167 171 178 180 190 223 258 309 335 345 352 352 349 352 356 349 336 334 335 333 330 328 327 327 324 316 308 307 317 329 334 334 332
306 309 314 306 281 262 258 250 245 252 256 246 234 225 219 217 218 214 205 199 198 194 188 191 201 206 211 219 224 219 209 197 187 181 178 174 167 166 169 168 166 165 167 171 172 166 162 167 171 168 168 168 167 171 182 186 199 234 271 331 341 344 351 350 342 342 346 344 339 339 338 335 332 331 330 328 324 319 313 311 318 329 335 336 334
326 321 321 317 297 261 250 245 241 242 243 235 225 215 207 207 213 212 205 200 201 202 198 199 210 210 201 205 218 214 200 188 185 183 176 168 163 164 163 160 160 164 165 163 161 158 159 166 172 175 177 176 173 179 188 191 199 262 307 336 342 339 343 343 343 345 346 344 344 346 343 336 332 331 331 333 336 334 328 319 316 322 331 337 337
340 335 335 335 330 309 263 245 235 227 215 209 208 203 198 198 207 209 203 199 206 212 209 204 219 227 217 201 206 205 193 184 182 178 169 162 161 159 156 156 160 160 155 151 148 149 155 164 169 172 176 177 176 183 194 195 189 268 322 331 336 341 343 342 343 347 348 347 348 349 345 341 342 341 340 343 346 343 332 320 315 319 329 337 340
343 343 350 358 359 344 309 245 211 188 168 171 178 175 171 175 189 196 192 192 203 208 198 189 207 226 225 208 202 200 191 182 177 171 163 158 156 151 148 151 154 149 144 144 144 149 161 166 160 160 169 173 170 169 178 194 203 241 339 338 332 336 343 341 341 346 350 351 350 349 349 353 355 352 343 340 340 337 330 324 321 322 330 337 340
4 3 6 16 23 24 43 113 129 125 136 153 158 150 148 156 168 171 172 182 196 201 197 196 209 218 214 199 194 192 188 187 187 181 169 157 149 145 143 146 147 147 147 147 146 150 156 153 152 163 178 184 181 175 177 190 202 248 357 346 333 330 335 338 341 345 349 350 351 352 355 359 360 353 343 339 339 337 334 330 324 324 333 340 342
23 29 27 28 33 40 57 81 95 107 119 121 114 107 100 84 111 175 184 186 187 185 183 193 211 216 201 185 180 177 177 180 180 174 165 158 152 148 146 146 147 149 149 147 146 148 149 152 162 176 183 186 186 184 183 188 189 14 2 350 338 329 328 335 341 344 347 349 352 356 359 2 360 353 346 346 344 339 334 331 327 330 340 345 344
30 38 44 49 51 51 57 69 84 101 102 85 76 75 60 44 55 174 182 166 146 138 136 142 164 184 182 173 165 160 164 167 165 163 163 162 156 149 145 144 144 145 146 149 153 154 155 164 176 181 178 179 182 181 179 177 27 13 4 355 344 334 329 333 337 341 346 350 352 357 1 3 0 358 355 352 347 339 335 334 332 334 342 346 346
39 41 47 57 70 80 82 83 87 89 83 74 74 76 62 52 70 118 137 127 119 120 121 124 137 162 175 173 166 161 163 163 160 159 159 157 151 146 144 145 147 148 151 158 162 161 164 172 178 179 178 178 179 174 161 81 20 9 2 359 353 342 334 332 334 339 346 350 353 357 0 1 2 4 2 355 345 338 338 338 337 337 341 345 345
53 53 56 62 71 82 91 98 100 94 85 77 77 79 76 75 88 102 106 105 109 116 123 129 140 155 165 166 160 157 158 158 156 156 156 154 150 147 148 152 157 158 161 169 175 174 174 176 177 179 180 179 176 167 129 58 27 11 5 3 359 351 343 339 337 339 343 349 353 356 357 360 4 6 359 348 341 339 339 341 342 342 343 343 340
59 61 63 66 70 77 83 90 92 88 84 83 84 86 87 88 92 100 106 114 123 131 136 139 141 145 149 151 152 153 155 154 153 155 155 151 147 148 152 159 164 166 174 189 191 183 175 173 175 179 182 181 174 149 97 61 33 17 10 5 0 357 354 348 343 341 343 347 351 354 356 1 4 2 351 341 340 340 338 340 344 345 345 344 340
59 63 65 67 68 71 79 88 94 96 98 102 103 100 97 99 109 120 126 132 137 138 137 137 138 141 144 146 147 149 150 151 153 157 157 154 153 156 160 164 169 176 191 202 197 185 178 176 177 185 188 182 166 135 97 66 31 18 13 6 3 3 359 354 349 345 344 345 349 352 356 0 3 359 349 340 340 339 338 341 347 348 347 344 342
58 62 65 68 70 72 75 81 89 96 102 105 105 103 103 106 113 118 121 124 128 128 129 131 135 138 141 143 145 147 151 154 159 163 165 164 164 163 165 170 179 189 200 203 196 187 182 180 183 190 187 173 158 150 150 40 12 10 5 3 5 6 4 0 356 350 346 346 349 351 354 358 2 1 355 344 340 341 342 344 348 351 350 344 341
57 59 62 66 70 74 76 78 81 86 92 96 99 100 101 102 105 108 111 115 118 121 124 127 131 135 139 143 147 151 155 159 164 169 172 171 170 170 174 182 192 200 204 203 195 189 187 187 189 188 180 170 168 181 211 269 336 353 356 359 1 4 6 6 3 357 353 350 348 348 353 358 1 1 357 349 345 346 346 344 347 351 349 344 343
Height
1525 1526 1528 1529 1530 1532 1533 1534 1535 1537 1537 1538 1538 1539 1540 1541 1542 1542 1543 1544 1544 1545 1546 1547 1548 1548 1549 1550 1551 1552 1553 1554 1555 1556 1557 1557 1558 1559 1560 1561 1561 1562 1562 1563 1563 1564 1565 1566 1566 1567 1567 1568 1569 1569 1569 1569 1570 1570 1570 1571 1571 1571 1572 1572 1572 1572 1572 1572 1572 1572 1571 1570 1570 1569 1568 1567 1566 1565 1564 1564 1563 1562 1561 1560 1558
1524 1525 1526 1528 1529 1530 1531 1532 1534 1535 1536 1537 1538 1539 1540 1540 1542 1543 1543 1544 1544 1545 1546 1547 1548 1549 1549 1551 1552 1553 1554 1554 1555 1556 1557 1558 1559 1559 1560 1561 1562 1562 1563 1563 1564 1564 1565 1566 1567 1567 1568 1568 1569 1570 1570 1570 1571 1571 1571 1571 1571 1571 1571 1572 1572 1572 1572 1571 1571 1571 1570 1570 1570 1569 1567 1567 1566 1565 1564 1563 1562 1561 1561 1560 1558
1523 1524 1525 1526 1527 1529 1530 1531 1532 1533 1535 1536 1537 1538 1539 1540 1541 1542 1543 1544 1544 1545 1546 1547 1548 1548 1549 1551 1552 1553 1554 1554 1555 1556 1557 1558 1559 1559 1560 1561 1562 1562 1563 1563 1564 1564 1565 1565 1566 1567 1567 1568 1568 1569 1569 1570 1571 1571 1570 1571 1571 1570 1571 1571 1572 1572 1571 1571 1571 1571 1570 1569 1569 1568 1566 1566 1565 1564 1564 1563 1562 1560 1559 1559 1558
1521 1523 1524 1525 1525 1527 1528 1529 1530 1532 1533 1535 1536 1537 1539 1539 1540 1542 1543 1543 1544 1544 1545 1546 1547 1548 1549 1550 1551 1552 1553 1554 1555 1556 1557 1558 1558 1559 1560 1560 1561 1562 1562 1563 1563 1564 1564 1565 1565 1566 1566 1567 1567 1568 1568 1569 1570 1570 1570 1570 1570 1570 1570 1570 1571 1571 1571 1570 1570 1570 1569 1568 1568 1567 1566 1566 1564 1563 1563 1562 1561 1560 1558 1557 1556
1520 1521 1523 1523 1524 1525 1526 1527 1529 1530 1531 1533 1535 1536 1538 1538 1540 1541 1542 1543 1543 1544 1545 1546 1547 1548 1549 1550 1551 1552 1553 1553 1554 1555 1556 1557 1558 1559 1559 1560 1561 1561 1562 1562 1562 1563 1563 1564 1565 1565 1565 1566 1566 1567 1567 1568 1568 1569 1569 1570 1570 1569 1569 1569 1570 1570 1570 1570 1569 1569 1568 1568 1567 1566 1566 1566 1565 1564 1563 1562 1560 1559 1557 1556 1555
1519 1521 1522 1522 1523 1524 1525 1526 1527 1528 1530 1531 1533 1535 1536 1537 1539 1540 1541 1542 1542 1543 1544 1545 1546 1547 1549 1550 1551 1551 1552 1553 1554 1554 1555 1556 1557 1557 1558 1559 1560 1560 1561 1561 1561 1562 1562 1563 1563 1564 1564 1565 1565 1566 1566 1566 1567 1568 1568 1569 1569 1568 1568 1569 1569 1569 1569 1569 1568 1567 1567 1567 1566 1566 1564 1564 1564 1563 1562 1561 1560 1559 1556 1554 1553
1519 1520 1521 1522 1523 1523 1524 1524 1525 1527 1528 1530 1531 1533 1534 1536 1537 1539 1540 1541 1541 1542 1543 1544 1545 1546 1548 1549 1550 1550 1551 1552 1553 1553 1554 1555 1555 1556 1557 1558 1559 1559 1560 1560 1561 1561 1561 1562 1562 1562 1563 1563 1563 1564 1564 1564 1565 1566 1566 1567 1568 1568 1568 1568 1568 1568 1568 1568 1568 1567 1566 1565 1565 1565 1564 1563 1562 1562 1561 1559 1559 1558 1556 1554 1552
1520 1520 1521 1522 1522 1523 1523 1524 1525 1526 1527 1528 1530 1531 1532 1534 1535 1537 1538 1539 1540 1541 1542 1543 1543 1544 1546 1547 1548 1549 1550 1551 1551 1552 1553 1554 1554 1555 1556 1557 1557 1558 1558 1559 1559 1560 1560 1560 1561 1561 1561 1562 1562 1562 1563 1563 1564 1564 1564 1565 1566 1566 1567 1567 1567 1567 1567 1567 1567 1567 1566 1565 1565 1564 1563 1562 1562 1561 1560 1558 1557 1556 1554 1552 1551
1519 1521 1521 1522 1522 1522 1523 1523 1524 1525 1526 1527 1528 1529 1531 1532 1533 1535 1536 1538 1539 1539 1540 1541 1542 1543 1544 1545 1546 1547 1548 1549 1549 1550 1551 1552 1553 1553 1554 1555 1556 1556 1557 1557 1558 1558 1558 1559 1559 1559 1559 1560 1560 1560 1561 1562 1562 1563 1563 1563 1564 1564 1565 1565 1566 1566 1566 1566 1566 1566 1565 1565 1564 1563 1562 1561 1560 1559 1557 1556 1555 1553 1552 1550 1550
1519 1520 1521 1521 1522 1522 1522 1522 1523 1524 1525 1526 1527 1528 1529 1530 1531 1533 1534 1536 1537 1537 1538 1539 1540 1541 1542 1543 1544 1545 1545 1546 1546 1548 1549 1549 1551 1551 1552 1553 1553 1554 1555 1556 1556 1556 1556 1556 1557 1557 1557 1557 1558 1558 1559 1559 1560 1561 1561 1562 1562 1562 1563 1564 1564 1565 1565 1565 1565 1564 1564 1563 1563 1562 1560 1559 1558 1557 1555 1554 1553 1551 1550 1548 1547
1519 1520 1521 1521 1522 1522 1522 1522 1522 1523 1524 1525 1526 1527 1528 1529 1529 1531 1532 1533 1534 1535 1536 1537 1538 1539 1539 1541 1542 1542 1543 1543 1544 1545 1546 1547 1548 1549 1549 1550 1550 1551 1552 1553 1554 1554 1554 1554 1554 1554 1555 1555 1555 1556 1556 1557 1558 1558 1559 1559 1560 1560 1561 1561 1562 1562 1562 1563 1563 1562 1561 1561 1561 1560 1559 1557 1556 1555 1554 1553 1551 1550 1548 1546 1545
1519 1520 1520 1521 1521 1522 1522 1522 1522 1523 1523 1524 1525 1525 1526 1527 1528 1529 1530 1531 1531 1532 1534 1534 1535 1536 1537 1538 1539 1540 1540 1541 1542 1543 1543 1544 1545 1546 1546 1547 1547 1548 1549 1550 1551 1551 1551 1552 1551 1551 1552 1552 1553 1553 1554 1554 1555 1555 1556 1557 1557 1558 1559 1560 1560 1560 1560 1560 1560 1560 1559 1559 1559 1558 1557 1555 1554 1553 1552 1551 1550 1548 1547 1545 1543
1520 1520 1520 1520 1520 1521 1521 1521 1522 1522 1522 1523 1523 1524 1525 1525 1526 1527 1528 1528 1529 1530 1531 1532 1532 1533 1534 1535 1536 1536 1537 1538 1539 1540 1540 1541 1542 1543 1543 1544 1545 1546 1546 1547 1548 1548 1549 1549 1549 1549 1550 1550 1551 1551 1551 1552 1552 1553 1554 1554 1555 1556 1556 1557 1558 1558 1558 1558 1558 1558 1557 1557 1557 1556 1554 1553 1552 1551 1549 1548 1547 1545 1544 1542 1540
1520 1520 1520 1521 1521 1521 1521 1521 1521 1521 1521 1522 1522 1523 1523 1524 1525 1525 1525 1526 1527 1528 1529 1530 1530 1530 1531 1531 1532 1533 1533 1534 1535 1535 1536 1537 1538 1539 1540 1541 1541 1543 1544 1545 1545 1546 1546 1546 1547 1547 1548 1548 1548 1549 1549 1550 1550 1551 1551 1552 1553 1553 1554 1555 1555 1556 1556 1556 1556 1556 1555 1554 1554 1553 1552 1551 1550 1548 1547 1546 1544 1542 1540 1538 1536
1520 1520 1520 1520 1520 1520 1520 1520 1520 1520 1520 1521 1521 1522 1522 1522 1523 1523 1523 1523 1524 1525 1527 1527 1527 1527 1527 1527 1528 1529 1530 1530 1531 1532 1533 1534 1535 1536 1537 1538 1539 1541 1542 1543 1543 1543 1544 1544 1545 1545 1546 1546 1546 1547 1547 1548 1548 1549 1549 1550 1551 1551 1552 1552 1553 1553 1554 1554 1554 1553 1552 1552 1552 1551 1549 1548 1547 1545 1543 1542 1540 1538 1536 1534 1532
1519 1519 1520 1520 1520 1520 1519 1519 1520 1520 1520 1520 1520 1520 1521 1521 1521 1521 1521 1521 1521 1522 1523 1524 1523 1523 1523 1524 1525 1526 1527 1527 1528 1530 1531 1532 1533 1534 1536 1537 1538 1540 1540 1540 1541 1541 1541 1542 1542 1543 1544 1544 1544 1545 1545 1546 1546 1547 1547 1548 1549 1549 1550 1550 1551 1551 1551 1551 1551 1551 1550 1549 1549 1548 1547 1545 1544 1542 1540 1538 1537 1535 1533 1532 1530
1519 1519 1519 1519 1519 1519 1519 1518 1518 1518 1519 1519 1519 1519 1519 1519 1519 1519 1519 1519 1519 1519 1520 1520 1521 1521 1521 1522 1523 1524 1525 1526 1527 1528 1529 1531 1532 1533 1535 1536 1538 1538 1538 1539 1539 1539 1539 1540 1541 1541 1541 1542 1542 1543 1544 1544 1545 1545 1546 1546 1547 1547 1548 1549 1549 1549 1549 1549 1549 1548 1547 1547 1546 1545 1543 1542 1541 1539 1537 1536 1535 1534 1532 1530 1529
1518 1518 1518 1518 1518 1518 1517 1517 1517 1517 1517 1518 1518 1518 1518 1518 1518 1517 1517 1518 1518 1518 1518 1518 1519 1520 1521 1521 1522 1523 1524 1525 1526 1527 1529 1530 1531 1533 1534 1536 1536 1536 1537 1537 1537 1537 1538 1538 1539 1539 1540 1540 1541 1541 1542 1543 1543 1544 1544 1545 1545 1546 1546 1547 1547 1547 1547 1546 1546 1545 1544 1543 1542 1541 1540 1539 1538 1536 1535 1533 1532 1531 1530 1528 1526
1516 1516 1516 1516 1516 1516 1516 1516 1516 1516 1516 1516 1516 1516 1516 1516 1516 1516 1516 1516 1517 1517 1517 1517 1518 1519 1520 1521 1522 1523 1524 1525 1526 1527 1528 1529 1530 1532 1534 1535 1535 1535 1535 1535 1535 1536 1536 1537 1537 1538 1538 1539 1539 1540 1540 1541 1542 1542 1543 1544 1544 1544 1544 1545 1545 1544 1544 1543 1542 1541 1541 1539 1538 1537 1535 1534 1534 1533 1532 1531 1529 1528 1527 1525 1524
1514 1515 1515 1514 1515 1515 1514 1514 1514 1514 1515 1515 1514 1515 1515 1515 1515 1515 1514 1515 1515 1516 1516 1517 1518 1519 1520 1521 1522 1522 1523 1524 1525 1526 1527 1528 1529 1530 1532 1534 1534 1534 1534 1534 1534 1534 1535 1535 1536 1536 1537 1537 1538 1538 1539 1540 1540 1541 1542 1542 1542 1542 1542 1543 1543 1542 1541 1541 1540 1539 1538 1537 1535 1534 1533 1531 1530 1529 1528 1527 1526 1525 1524 1522 1521
1512 1512 1512 1512 1512 1512 1512 1512 1512 1512 1512 1513 1513 1513 1513 1513 1513 1513 1514 1514 1514 1514 1515 1516 1516 1517 1518 1519 1520 1521 1522 1522 1523 1525 1526 1527 1528 1529 1531 1532 1532 1532 1533 1533 1533 1533 1533 1534 1534 1535 1535 1536 1536 1537 1537 1538 1539 1539 1540 1540 1541 1541 1541 1540 1540 1540 1539 1539 1538 1537 1536 1535 1534 1533 1531 1530 1529 1527 1526 1524 1523 1522 1521 1520 1519
1509 1509 1509 1509 1509 1509 1510 1509 1509 1509 1510 1510 1510 1510 1511 1511 1511 1512 1512 1512 1513 1513 1514 1514 1515 1515 1516 1517 1518 1519 1520 1521 1522 1523 1524 1525 1527 1528 1529 1530 1530 1531 1531 1532 1532 1531 1532 1532 1533 1533 1534 1534 1535 1535 1536 1537 1537 1538 1538 1539 1539 1539 1539 1538 1538 1538 1537 1537 1536 1535 1534 1533 1532 1531 1530 1529 1527 1525 1523 1521 1520 1519 1518 1517 1516
1506 1506 1506 1506 1506 1506 1507 1506 1507 1507 1507 1507 1508 1508 1508 1509 1509 1509 1510 1510 1511 1511 1512 1512 1513 1513 1514 1515 1516 1517 1518 1519 1521 1522 1522 1523 1524 1525 1527 1527 1528 1529 1530 1530 1530 1530 1530 1531 1531 1532 1532 1533 1534 1534 1534 1535 1535 1536 1536 1536 1536 1536 1537 1536 1536 1536 1535 1534 1534 1533 1532 1531 1530 1529 1528 1526 1524 1522 1519 1517 1515 1514 1513 1512 1511
1503 1502 1502 1502 1503 1503 1503 1503 1504 1504 1504 1504 1505 1505 1506 1506 1506 1507 1507 1508 1509 1509 1509 1510 1511 1511 1512 1512 1513 1514 1516 1517 1519 1520 1520 1521 1522 1523 1524 1525 1526 1527 1528 1528 1528 1528 1529 1529 1530 1530 1531 1532 1532 1532 1533 1533 1533 1534 1534 1534 1534 1535 1535 1534 1534 1533 1533 1532 1532 1531 1530 1529 1527 1526 1524 1522 1519 1517 1514 1512 1511 1509 1508 1506 1505
1498 1498 1498 1498 1498 1499 1499 1499 1500 1500 1500 1501 1501 1502 1503 1503 1503 1503 1504 1505 1506 1507 1507 1508 1509 1509 1510 1510 1511 1512 1513 1515 1516 1517 1518 1519 1519 1521 1522 1523 1524 1525 1525 1525 1526 1526 1527 1528 1529 1529 1530 1530 1530 1530 1531 1531 1531 1532 1532 1532 1533 1533 1533 1532 1532 1531 1531 1531 1530 1529 1528 1526 1524 1522 1520 1517 1514 1512 1511 1510 1508 1507 1505 1503 1501
1493 1493 1493 1493 1494 1494 1494 1495 1495 1496 1496 1497 1497 1498 1499 1499 1499 1500 1500 1501 1502 1503 1504 1505 1506 1507 1508 1508 1508 1509 1510 1512 1513 1514 1515 1516 1517 1518 1519 1520 1522 1522 1523 1523 1524 1525 1525 1526 1527 1528 1528 1528 1529 1529 1529 1529 1530 1530 1530 1531 1531 1531 1531 1530 1530 1529 1529 1529 1527 1526 1525 1523 1521 1520 1518 1515 1513 1511 1510 1508 1506 1504 1503 1501 1499
1488 1488 1488 1488 1488 1489 1489 1490 1490 1491 1492 1492 1493 1494 1494 1495 1495 1495 1496 1497 1498 1500 1501 1502 1503 1505 1505 1505 1506 1506 1508 1509 1510 1512 1513 1514 1515 1516 1517 1518 1519 1520 1521 1521 1522 1523 1524 1524 1525 1526 1526 1526 1527 1527 1528 1528 1528 1528 1529 1529 1529 1529 1529 1528 1528 1527 1527 1526 1525 1524 1522 1521 1519 1519 1517 1515 1513 1510 1508 1506 1504 1502 1501 1499 1497
1485 1484 1483 1483 1483 1484 1484 1485 1485 1486 1487 1487 1488 1489 1490 1490 1491 1491 1492 1493 1494 1496 1497 1498 1500 1501 1502 1502 1503 1504 1505 1506 1508 1509 1510 1511 1512 1513 1514 1515 1516 1517 1518 1519 1520 1521 1522 1523 1523 1524 1524 1525 1526 1526 1526 1526 1526 1527 1527 1527 1527 1527 1526 1526 1526 1525 1525 1523 1522 1521 1519 1518 1517 1516 1515 1513 1511 1509 1507 1505 1503 1501 1499 1497 1495
1482 1480 1480 1479 1479 1479 1479 1480 1481 1481 1482 1482 1483 1484 1485 1485 1486 1487 1488 1489 1490 1491 1492 1493 1495 1497 1498 1498 1500 1502 1504 1504 1505 1507 1508 1508 1509 1510 1511 1512 1513 1514 1515 1516 1518 1519 1520 1520 1521 1522 1523 1524 1525 1525 1525 1525 1525 1525 1526 1526 1526 1526 1525 1525 1524 1524 1523 1521 1520 1518 1517 1516 1515 1513 1511 1509 1508 1506 1504 1502 1500 1498 1497 1495 1493
1479 1478 1477 1476 1476 1476 1476 1476 1476 1477 1478 1478 1479 1479 1479 1479 1480 1482 1483 1484 1485 1487 1488 1489 1492 1494 1495 1495 1497 1500 1503 1503 1504 1506 1506 1507 1508 1508 1509 1510 1510 1512 1513 1515 1516 1517 1518 1519 1520 1521 1522 1523 1524 1524 1524 1524 1524 1524 1524 1524 1524 1524 1524 1523 1523 1522 1521 1519 1517 1516 1515 1514 1512 1510 1509 1507 1505 1503 1501 1500 1498 1496 1495 1493 1492
1475 1475 1474 1473 1472 1472 1472 1472 1472 1472 1473 1474 1475 1475 1475 1474 1475 1477 1478 1479 1481 1483 1485 1487 1489 1491 1492 1493 1495 1498 1500 1501 1503 1504 1505 1505 1506 1506 1507 1508 1509 1510 1512 1513 1514 1515 1516 1517 1519 1520 1521 1522 1523 1523 1523 1523 1523 1523 1523 1523 1523 1522 1522 1522 1521 1520 1518 1517 1516 1515 1514 1512 1510 1508 1507 1504 1502 1501 1499 1497 1496 1494 1493 1492 1490
1471 1470 1470 1469 1469 1468 1468 1467 1468 1468 1468 1469 1470 1471 1471 1471 1471 1472 1474 1476 1477 1479 1481 1483 1485 1487 1488 1490 1492 1495 1497 1498 1501 1502 1503 1503 1504 1505 1505 1506 1507 1508 1510 1511 1513 1514 1515 1517 1518 1518 1520 1521 1521 1521 1521 1521 1522 1522 1522 1523 1522 1522 1521 1520 1519 1518 1517 1515 1514 1513 1512 1511 1509 1507 1505 1503 1501 1499 1497 1495 1494 1492 1491 1489 1488
1467 1466 1465 1465 1464 1464 1463 1463 1463 1463 1464 1464 1465 1466 1467 1468 1468 1469 1470 1472 1474 1475 1477 1479 1481 1483 1485 1487 1489 1491 1493 1496 1498 1499 1501 1501 1502 1503 1503 1504 1505 1507 1508 1510 1512 1513 1514 1516 1517 1517 1518 1519 1519 1519 1519 1520 1520 1521 1521 1521 1521 1521 1520 1519 1518 1516 1515 1513 1513 1512 1511 1509 1507 1505 1503 1501 1499 1497 1495 1493 1492 1490 1489 1487 1486
1463 1462 1461 1460 1460 1459 1459 1459 1459 1459 1460 1460 1461 1462 1463 1464 1465 1466 1466 1468 1470 1471 1473 1475 1477 1479 1482 1484 1486 1488 1490 1493 1495 1497 1498 1498 1499 1500 1501 1502 1504 1505 1507 1509 1511 1512 1513 1514 1515 1516 1517 1517 1517 1517 1518 1519 1519 1519 1520 1520 1520 1520 1519 1518 1516 1515 1514 1512 1512 1511 1510 1507 1505 1503 1501 1499 1497 1495 1493 1491 1490 1489 1487 1485 1484
1460 1458 1456 1455 1455 1454 1454 1455 1455 1455 1456 1456 1457 1458 1459 1461 1463 1463 1464 1465 1466 1468 1470 1472 1474 1476 1478 1480 1483 1485 1488 1490 1493 1494 1495 1496 1497 1498 1499 1500 1502 1504 1506 1508 1510 1511 1512 1513 1514 1515 1515 1515 1515 1516 1517 1517 1518 1519 1519 1519 1519 1518 1517 1516 1515 1514 1512 1511 1511 1510 1507 1505 1503 1501 1499 1497 1495 1493 1491 1490 1488 1487 1485 1483 1482
1456 1454 1452 1451 1450 1449 1449 1450 1450 1451 1451 1452 1453 1455 1456 1458 1460 1461 1462 1463 1464 1466 1468 1469 1472 1474 1475 1477 1479 1482 1485 1488 1491 1492 1493 1494 1495 1496 1497 1498 1500 1503 1505 1507 1509 1510 1511 1512 1513 1513 1514 1514 1514 1515 1516 1517 1517 1518 1518 1517 1517 1517 1516 1515 1514 1512 1510 1510 1510 1508 1505 1504 1502 1499 1497 1495 1493 1491 1490 1488 1486 1485 1483 1482 1480
1454 1452 1449 1447 1446 1445 1445 1445 1446 1447 1447 1448 1450 1451 1453 1455 1457 1458 1460 1461 1462 1463 1465 1467 1469 1470 1472 1475 1477 1479 1482 1485 1487 1489 1491 1493 1494 1496 1497 1498 1500 1502 1504 1506 1507 1508 1509 1510 1511 1512 1513 1513 1514 1514 1515 1516 1516 1516 1516 1516 1516 1515 1514 1513 1512 1510 1509 1508 1508 1506 1504 1502 1500 1498 1496 1494 1492 1490 1488 1486 1485 1483 1481 1480 1478
1452 1450 1447 1444 1442 1442 1442 1442 1443 1444 1444 1445 1446 1448 1450 1453 1454 1456 1458 1460 1460 1461 1463 1465 1467 1468 1469 1473 1476 1478 1481 1483 1484 1486 1489 1491 1494 1495 1497 1498 1500 1502 1504 1505 1506 1507 1508 1509 1510 1511 1511 1512 1513 1514 1514 1515 1515 1515 1515 1515 1514 1514 1513 1512 1510 1509 1508 1508 1507 1505 1503 1501 1499 1497 1495 1492 1490 1488 1487 1485 1483 1481 1479 1478 1476
1450 1447 1445 1442 1440 1439 1440 1441 1441 1442 1443 1443 1444 1446 1448 1451 1452 1455 1457 1458 1459 1460 1462 1464 1467 1467 1468 1470 1472 1475 1478 1481 1483 1484 1486 1490 1493 1495 1496 1498 1500 1501 1503 1504 1505 1506 1507 1507 1508 1509 1510 1511 1512 1513 1513 1513 1514 1514 1514 1513 1513 1513 1512 1511 1510 1509 1508 1507 1505 1504 1502 1500 1498 1496 1494 1491 1489 1487 1485 1484 1482 1480 1478 1476 1474
1448 1446 1443 1441 1438 1438 1438 1439 1440 1441 1441 1442 1443 1445 1447 1449 1451 1453 1455 1457 1458 1459 1461 1464 1466 1467 1468 1469 1470 1472 1475 1478 1481 1483 1485 1488 1491 1494 1496 1497 1499 1500 1502 1503 1504 1505 1505 1506 1507 1508 1509 1510 1511 1512 1512 1512 1513 1513 1513 1512 1512 1512 1511 1510 1509 1508 1507 1505 1504 1502 1500 1498 1497 1495 1493 1490 1488 1486 1484 1482 1481 1479 1477 1475 1473
1448 1445 1443 1441 1439 1438 1438 1438 1439 1440 1441 1441 1443 1444 1446 1449 1451 1452 1454 1456 1457 1458 1461 1463 1464 1466 1468 1470 1471 1473 1475 1477 1479 1483 1485 1487 1490 1492 1494 1496 1498 1499 1501 1502 1504 1504 1505 1505 1506 1507 1508 1509 1510 1511 1511 1511 1512 1512 1512 1511 1511 1510 1510 1509 1508 1507 1505 1504 1503 1501 1500 1498 1496 1493 1491 1489 1486 1484 1483 1481 1480 1478 1476 1474 1471
1449 1446 1444 1442 1440 1439 1438 1438 1439 1440 1441 1442 1443 1445 1446 1449 1451 1452 1453 1455 1455 1457 1460 1462 1463 1464 1467 1469 1471 1473 1474 1477 1480 1483 1486 1487 1489 1491 1493 1495 1497 1499 1500 1501 1503 1503 1504 1505 1506 1507 1508 1508 1509 1510 1510 1511 1511 1511 1510 1510 1509 1509 1509 1508 1507 1506 1505 1504 1502 1501 1499 1496 1494 1492 1490 1488 1486 1484 1482 1480 1478 1477 1475 1473 1471
1449 1447 1446 1444 1442 1440 1439 1439 1440 1441 1442 1443 1444 1446 1447 1448 1450 1451 1452 1453 1454 1456 1459 1460 1462 1463 1466 1468 1471 1473 1475 1478 1481 1483 1486 1488 1490 1491 1493 1495 1496 1498 1499 1500 1502 1503 1503 1504 1506 1506 1507 1507 1508 1509 1509 1509 1509 1509 1509 1509 1508 1508 1507 1507 1506 1505 1504 1503 1501 1500 1497 1495 1493 1491 1489 1487 1485 1483 1481 1479 1478 1476 1474 1472 1470
1449 1448 1447 1446 1445 1443 1442 1442 1442 1443 1444 1445 1446 1447 1448 1449 1450 1450 1451 1452 1454 1456 1458 1460 1461 1463 1465 1468 1471 1474 1477 1479 1482 1484 1486 1488 1489 1491 1492 1494 1495 1497 1498 1500 1501 1502 1503 1504 1505 1505 1506 1506 1507 1508 1508 1508 1508 1508 1508 1508 1507 1507 1506 1506 1505 1504 1503 1502 1500 1498 1496 1494 1492 1490 1489 1487 1485 1483 1481 1479 1478 1475 1473 1471 1469
1451 1449 1448 1448 1448 1447 1446 1446 1446 1446 1447 1447 1448 1449 1450 1450 1450 1450 1452 1453 1454 1456 1457 1459 1461 1462 1464 1467 1471 1474 1476 1479 1481 1484 1486 1488 1489 1490 1492 1493 1495 1497 1498 1500 1501 1502 1503 1503 1504 1505 1505 1506 1506 1507 1507 1508 1508 1507 1507 1507 1506 1506 1505 1505 1504 1503 1502 1501 1499 1497 1495 1493 1492 1490 1488 1486 1484 1482 1481 1479 1477 1475 1472 1470 1468
1452 1451 1450 1449 1449 1449 1448 1448 1449 1449 1450 1450 1451 1452 1452 1452 1453 1453 1454 1455 1456 1457 1458 1460 1461 1463 1465 1467 1470 1473 1475 1478 1481 1484 1486 1488 1489 1490 1491 1494 1496 1497 1499 1500 1500 1501 1502 1503 1503 1504 1505 1505 1506 1506 1507 1507 1507 1507 1506 1506 1505 1505 1504 1504 1503 1502 1501 1500 1498 1497 1495 1493 1491 1489 1487 1485 1483 1482 1480 1478 1476 1474 1472 1470 1468
1454 1453 1452 1451 1450 1450 1450 1450 1450 1450 1451 1452 1453 1454 1455 1455 1456 1456 1456 1457 1458 1458 1460 1461 1462 1463 1466 1468 1471 1474 1477 1479 1482 1484 1486 1488 1489 1490 1492 1494 1496 1497 1499 1499 1500 1501 1502 1502 1503 1504 1504 1505 1506 1506 1506 1506 1506 1506 1505 1505 1504 1504 1503 1502 1502 1501 1500 1499 1498 1496 1494 1492 1490 1488 1486 1485 1483 1482 1480 1478 1475 1473 1471 1469 1468
1457 1455 1454 1453 1452 1451 1451 1451 1451 1451 1452 1453 1454 1455 1456 1457 1457 1457 1458 1458 1459 1460 1461 1462 1463 1465 1467 1470 1473 1476 1479 1481 1483 1485 1487 1488 1489 1490 1492 1495 1496 1498 1498 1499 1500 1501 1501 1502 1503 1503 1504 1505 1505 1505 1505 1505 1505 1505 1505 1504 1504 1503 1502 1501 1501 1500 1499 1498 1497 1495 1494 1491 1489 1487 1486 1485 1483 1482 1480 1477 1475 1473 1471 1469 1468
1461 1459 1457 1456 1455 1454 1453 1453 1453 1453 1453 1454 1455 1455 1456 1457 1457 1457 1458 1459 1460 1461 1462 1463 1465 1467 1470 1473 1475 1478 1480 1482 1484 1486 1487 1488 1490 1491 1493 1495 1496 1497 1498 1499 1499 1500 1501 1501 1502 1503 1504 1504 1505 1505 1505 1505 1505 1504 1504 1504 1503 1502 1501 1501 1500 1499 1498 1497 1496 1495 1493 1491 1489 1487 1486 1485 1484 1482 1480 1477 1475 1473 1471 1469 1468
1465 1463 1461 1459 1458 1457 1456 1456 1456 1456 1456 1456 1456 1457 1457 1458 1458 1459 1460 1461 1462 1463 1465 1467 1469 1471 1473 1475 1477 1479 1481 1483 1485 1486 1488 1489 1490 1492 1494 1495 1496 1497 1498 1498 1499 1500 1500 1501 1502 1503 1503 1504 1504 1504 1504 1504 1504 1504 1504 1503 1503 1502 1501 1500 1499 1498 1497 1496 1495 1494 1493 1491 1489 1488 1486 1485 1484 1481 1479 1477 1475 1473 1471 1470 1468
1468 1467 1465 1464 1462 1461 1461 1460 1460 1460 1460 1460 1460 1460 1461 1461 1462 1463 1464 1465 1466 1467 1469 1470 1472 1474 1476 1478 1479 1481 1482 1484 1485 1487 1488 1489 1491 1492 1494 1495 1496 1496 1497 1498 1499 1499 1500 1501 1502 1502 1503 1503 1504 1504 1504 1504 1503 1503 1503 1503 1502 1501 1500 1499 1499 1498 1496 1495 1495 1494 1492 1491 1489 1488 1486 1485 1483 1481 1479 1477 1475 1473 1472 1471 1469